Location: Albany
(35.0170°S, 117.8920°E)
Time: 01:36:12
(UTC+08:00)

Explorer 7 - Pass Details

Date: 30 January 2021
Orbit: 484 x 677 km, 50.3° (Epoch: 01 March)

Event Time Altitude Azimuth Distance (km) Brightness Sun altitude
Rises 16:55:08 0° 240° (WSW) 3,041 11.6 27.5°
Reaches altitude 10° 16:58:54 10° 211° (SSW) 2,105 10.4 26.7°
Maximum altitude 17:01:04 13° 185° (S) 1,906 9.8 26.2°
Drops below altitude 10° 17:03:12 10° 158° (SSE) 2,068 9.6 25.8°
Sets 17:06:51 0° 129° (SE) 2,934 10.1 25.1°
